FW9692 Weather Reports


time (UTC)temp
F
wind
direction
speed
knots
gust
knots
rain 1hr
in
rain 24hr
in
rain mn
in
humidity
%
barometer
mb
20260901083043 78 107 6.1 8.7 0.00 0.00 0.00 56 1000.8
20260901081537 79 140 7.8 8.7 0.00 0.00 0.00 56 1000.8
20260901080043 79 171 5.2 6.1 0.00 0.00 0.00 56 1001.0
20260901074536 78 190 5.2 8.7 0.00 0.00 0.00 57 1001.0
20260901073035 78 232 4.3 6.1 0.00 0.00 0.00 58 1001.3
20260901071535 78 217 3.5 5.2 0.00 0.00 0.00 58 1001.1
20260901070037 78 216 4.3 6.1 0.00 0.00 0.00 58 1000.9
20260901064538 77 233 3.5 6.1 0.00 0.00 0.00 57 1000.8
20260901063037 78 218 4.3 7.8 0.00 0.00 0.00 57 1000.7
20260901061535 78 229 7.0 8.7 0.00 0.00 0.00 56 1000.6
20260901060034 79 194 7.8 12.2 0.00 0.00 0.00 55 1000.4
20260901054532 79 201 7.8 12.2 0.00 0.00 0.00 54 1000.3
20260901053036 80 186 15.6 20.0 0.00 0.00 0.00 50 1000.3
20260901051533 80 171 17.4 20.9 0.00 0.00 0.00 50 1000.0
20260901050031 81 165 18.2 22.6 0.00 0.00 0.00 49 999.8
20260901044531 80 173 17.4 21.7 0.00 0.00 0.00 51 999.7
20260901043031 80 171 17.4 21.7 0.00 0.00 0.00 51 999.7
20260901041601 80 173 17.4 22.6 0.00 0.00 0.00 51 999.6
20260901034558 79 187 15.6 24.3 0.00 0.00 0.00 53 999.5
20260901033057 83 196 27.8 33.0 0.00 0.00 0.00 46 999.3
20260901031534 84 177 23.5 26.9 0.00 0.00 0.00 43 999.2
20260901030030 84 163 25.2 32.2 0.00 0.00 0.00 42 998.7
20260901024531 85 169 27.8 34.8 0.00 0.00 0.00 42 998.4
20260901023033 83 167 24.3 28.7 0.00 0.00 0.00 44 997.9
20260901021538 81 189 26.1 37.4 0.00 0.00 0.00 51 997.9
20260901020037 87 183 27.8 33.9 0.00 0.00 0.00 41 997.7
20260901014537 92 138 25.2 34.8 0.00 0.00 0.00 36 997.0
20260901013036 92 145 23.5 31.3 0.00 0.00 0.00 34 996.7
20260901011531 93 132 26.1 30.4 0.00 0.00 0.00 34 996.6
20260901010039 94 124 19.1 26.1 0.00 0.00 0.00 33 996.9
20260901004530 94 129 19.1 26.1 0.00 0.00 0.00 32 996.8
20260901003029 95 138 17.4 22.6 0.00 0.00 0.00 31 996.4
20260901001533 95 139 20.9 27.8 0.00 0.00 0.00 31 996.3
20260901000029 95 139 14.8 22.6 0.00 0.00 0.00 30 996.5
20260831234539 97 147 13.9 22.6 0.00 0.00 0.00 26 996.5
20260831233021 96 137 8.7 17.4 0.00 0.00 0.00 27 996.5
20260831231529 96 124 13.0 20.0 0.00 0.00 0.00 26 996.6
20260831230029 96 90 9.6 17.4 0.00 0.00 0.00 27 996.6
20260831224528 97 140 13.0 21.7 0.00 0.00 0.00 26 996.5
20260831223024 96 49 13.0 19.1 0.00 0.00 0.00 27 996.6
20260831221536 96 138 15.6 20.9 0.00 0.00 0.00 26 996.8
20260831220027 97 92 10.4 20.0 0.00 0.00 0.00 26 997.0
20260831214540 97 85 8.7 14.8 0.00 0.00 0.00 25 997.3
20260831213030 97 88 11.3 15.6 0.00 0.00 0.00 26 997.5
20260831211515 97 178 0.9 5.2 0.00 0.00 0.00 25 997.9
20260831210008 95 111 5.2 15.6 0.00 0.00 0.00 27 998.3
20260831204506 96 165 2.6 12.2 0.00 0.00 0.00 28 998.4
20260831203006 96 90 7.0 13.0 0.00 0.00 0.00 28 998.6
20260831201518 95 350 6.1 10.4 0.00 0.00 0.00 27 999.0
20260831200019 95 65 3.5 8.7 0.00 0.00 0.00 28 999.2
20260831194518 94 182 5.2 11.3 0.00 0.00 0.00 29 999.3
20260831193013 95 167 6.1 13.9 0.00 0.00 0.00 29 999.5
20260831191508 94 259 4.3 9.6 0.00 0.00 0.00 30 999.7
20260831190008 93 289 2.6 9.6 0.00 0.00 0.00 31 999.8
20260831184506 93 244 8.7 10.4 0.00 0.00 0.00 31 1000.0
20260831183004 94 275 3.5 7.0 0.00 0.00 0.00 30 1000.2
20260831181601 93 86 5.2 8.7 0.00 0.00 0.00 32 1000.4
20260831180054 92 15 3.5 7.0 0.00 0.00 0.00 33 1000.6
20260831174553 91 221 4.3 10.4 0.00 0.00 0.00 34 1000.6
20260831173049 91 162 3.5 11.3 0.00 0.00 0.00 35 1000.7
20260831171558 89 51 1.7 13.9 0.00 0.00 0.00 37 1000.9
20260831170054 90 121 5.2 8.7 0.00 0.00 0.00 37 1001.0
20260831164552 89 137 1.7 8.7 0.00 0.00 0.00 39 1001.2
20260831163048 87 51 2.6 7.8 0.00 0.00 0.00 41 1001.2
20260831161537 86 144 4.3 8.7 0.00 0.00 0.00 44 1001.2
20260831160042 85 142 3.5 8.7 0.00 0.00 0.00 45 1001.1
20260831154529 84 107 4.3 8.7 0.00 0.00 0.00 47 1001.0
20260831153048 83 146 4.3 8.7 0.00 0.00 0.00 49 1000.9
20260831151534 82 142 6.1 9.6 0.00 0.00 0.00 51 1000.8
20260831150033 81 196 4.3 9.6 0.00 0.00 0.00 52 1000.8
20260831144523 80 165 7.0 10.4 0.00 0.00 0.00 54 1000.8
20260831143035 78 138 9.6 13.9 0.00 0.00 0.00 56 1000.8
20260831141525 78 138 10.4 14.8 0.00 0.00 0.00 56 1000.8
20260831140043 77 140 10.4 14.8 0.00 0.00 0.00 58 1000.6
20260831134518 77 134 11.3 17.4 0.00 0.00 0.00 59 1000.4
20260831133029 76 141 7.8 10.4 0.00 0.00 0.00 59 1000.3
20260831131516 76 134 7.8 12.2 0.00 0.00 0.00 59 1000.2
20260831130019 76 138 6.1 7.8 0.00 0.00 0.00 59 1000.2
20260831124529 76 178 3.5 6.1 0.00 0.00 0.00 59 1000.2
20260831123010 76 155 3.5 8.7 0.00 0.00 0.00 59 999.9
20260831121520 76 142 7.0 13.9 0.00 0.00 0.00 58 999.7
20260831120017 76 148 12.2 16.5 0.00 0.00 0.00 57 999.4
20260831114504 77 147 12.2 19.1 0.00 0.00 0.00 57 999.4
20260831113004 77 142 13.9 19.1 0.00 0.00 0.00 56 999.2
20260831111501 77 137 13.9 17.4 0.00 0.00 0.00 55 999.1
20260831110100 78 146 13.9 19.1 0.00 0.00 0.00 55 999.1
20260831104557 78 140 14.8 20.0 0.00 0.00 0.00 54 999.1
20260831103056 78 141 15.6 20.9 0.00 0.00 0.00 53 999.1
20260831101604 78 142 15.6 20.9 0.00 0.00 0.00 53 999.0
20260831100053 79 142 16.5 20.0 0.00 0.00 0.00 52 998.9
20260831094604 79 144 14.8 17.4 0.00 0.00 0.00 52 998.8
20260831093050 79 139 13.9 19.1 0.00 0.00 0.00 52 998.9
20260831091547 79 137 13.9 18.2 0.00 0.00 0.00 51 999.0
20260831090045 80 146 13.9 19.1 0.00 0.00 0.00 51 999.0